Location: Unspecified
(51.2667°N, 0.0000°E)
Time: 08:47:42
(UTC+00:00)

TIGRISAT - Visible Passes

Search period start: 22 August 2019 00:00
Search period end: 01 September 2019 00:00
Orbit: 606 x 688 km, 97.7° (Epoch: 21 August)

Date Brightness Start Highest point End Pass type
(mag) Time Alt. Az. Time Alt. Az. Time Alt. Az.
22 Aug ? 20:52:48 10° NNE 20:57:26 64° E 21:01:05 15° S visible
22 Aug ? 22:30:15 10° NNW 22:33:41 21° WNW 22:37:03 10° WSW visible
23 Aug ? 19:43:10 10° NE 19:45:55 15° E 19:48:36 10° ESE visible
23 Aug ? 21:18:32 10° NNE 21:23:11 77° WNW 21:26:55 15° SSW visible
23 Aug ? 22:56:50 10° NNW 22:59:04 14° NW 23:01:17 10° W visible
24 Aug ? 20:08:06 10° NE 20:11:56 25° E 20:15:02 13° SE visible
24 Aug ? 21:44:24 10° N 21:48:50 45° WNW 21:52:45 12° SW visible
25 Aug ? 20:33:28 10° NNE 20:37:52 42° E 20:40:51 18° SSE visible
25 Aug ? 22:10:27 10° N 22:14:23 28° WNW 22:18:14 10° WSW visible
26 Aug ? 20:59:05 10° NNE 21:03:41 73° ESE 21:06:41 21° S visible
26 Aug ? 22:36:43 10° NNW 22:39:50 18° WNW 22:42:55 10° W visible
27 Aug ? 19:49:12 10° NE 19:52:15 17° E 19:54:46 12° SE visible
27 Aug ? 21:24:51 10° N 21:29:25 67° WNW 21:32:30 20° SSW visible
27 Aug ? 23:03:33 10° NNW 23:05:13 12° NW 23:06:52 10° WNW visible
28 Aug ? 20:14:16 10° NNE 20:18:15 29° E 20:20:36 18° SE visible
28 Aug ? 21:50:46 10° N 21:55:02 40° WNW 21:58:19 15° SW visible
29 Aug ? 20:39:42 10° NNE 20:44:08 48° E 20:46:25 25° SSE visible
29 Aug ? 22:16:51 10° N 22:20:34 25° WNW 22:24:08 10° WSW visible
30 Aug ? 19:30:56 10° ENE 19:32:28 11° E 19:33:59 10° ESE visible
30 Aug ? 21:05:21 10° NNE 21:09:56 83° ESE 21:12:13 29° S visible
30 Aug ? 22:43:13 10° NNW 22:46:00 16° NW 22:48:44 10° W visible
31 Aug ? 19:55:15 10° NE 19:58:33 20° E 20:00:19 16° ESE visible
31 Aug ? 21:31:09 10° N 21:35:38 58° WNW 21:38:02 25° SW visible
31 Aug ? 23:10:41 10° NW 23:11:21 10° NW 23:12:00 10° WNW visible
